FW3572 Weather Reports


time (UTC)temp
C
wind
direction
speed
KPH
gust
KPH
rain 1hr
cm
rain 24hr
cm
rain mn
cm
humidity
%
barometer
mb
20260506093040 23 121 0.0 0.0 0.00 0.00 0.00 100 1017.4
20260506092538 23 121 0.0 0.0 0.00 0.00 0.00 100 1017.4
20260506092038 23 121 0.0 0.0 0.00 0.00 0.00 100 1017.3
20260506091538 23 121 0.0 0.0 0.00 0.00 0.00 100 1017.2
20260506091039 23 121 0.0 0.0 0.00 0.00 0.00 100 1017.2
20260506090537 23 121 0.0 0.0 0.00 0.00 0.00 100 1017.2
20260506090037 23 120 0.0 0.0 0.00 0.00 0.00 100 1017.1
20260506085537 23 121 0.0 0.0 0.00 0.00 0.00 100 1017.1
20260506085037 23 120 0.0 0.0 0.00 0.00 0.00 100 1017.1
20260506084542 23 126 0.0 0.0 0.00 0.00 0.00 100 1017.1
20260506084039 23 126 0.0 0.0 0.00 0.00 0.00 100 1017.3
20260506083538 23 127 0.0 0.0 0.00 0.00 0.00 100 1017.2
20260506083035 23 125 0.0 0.0 0.00 0.00 0.00 100 1017.3
20260506082535 23 125 0.0 0.0 0.00 0.00 0.00 100 1017.3
20260506082035 23 125 0.0 0.0 0.00 0.00 0.00 100 1017.3
20260506081534 23 126 0.0 0.0 0.00 0.00 0.00 100 1017.3
20260506081034 23 126 0.0 4.8 0.00 0.00 0.00 100 1017.3
20260506080534 23 126 1.6 4.8 0.00 0.00 0.00 100 1017.3
20260506073031 23 111 1.6 9.7 0.00 0.00 0.00 100 1017.4
20260506072534 23 123 1.6 9.7 0.00 0.00 0.00 100 1017.5
20260506072030 23 141 3.2 8.0 0.00 0.00 0.00 100 1017.5
20260506071534 23 117 3.2 11.3 0.00 0.00 0.00 100 1017.4
20260506071030 23 116 3.2 11.3 0.00 0.00 0.00 100 1017.5
20260506070530 23 132 1.6 6.4 0.00 0.00 0.00 100 1017.4
20260506062027 23 114 3.2 9.7 0.00 0.00 0.00 100 1017.6
20260506061527 23 121 3.2 8.0 0.00 0.00 0.00 100 1017.6
20260506061029 23 128 1.6 8.0 0.00 0.00 0.00 100 1017.7
20260506060529 23 134 0.0 14.5 0.00 0.00 0.00 100 1017.6
20260506051020 24 114 6.4 17.7 0.00 0.00 0.00 100 1017.9
20260506050520 24 116 6.4 17.7 0.00 0.00 0.00 100 1017.9
20260506045019 24 177 3.2 11.3 0.00 0.00 0.00 100 1018.0
20260506044518 24 136 4.8 14.5 0.00 0.00 0.00 100 1018.0
20260506044017 24 152 4.8 14.5 0.00 0.00 0.00 100 1017.9
20260506043517 24 107 3.2 17.7 0.00 0.00 0.00 100 1018.0
20260506043016 24 130 4.8 17.7 0.00 0.00 0.00 100 1017.9
20260506042516 24 111 4.8 12.9 0.00 0.00 0.00 100 1018.0
20260506042016 24 119 1.6 17.7 0.00 0.00 0.00 100 1018.2
20260506041516 24 121 6.4 17.7 0.00 0.00 0.00 100 1018.1
20260506041014 24 112 3.2 12.9 0.00 0.00 0.00 100 1018.2
20260506040513 24 108 3.2 14.5 0.00 0.00 0.00 100 1018.3
20260506040013 24 122 4.8 14.5 0.00 0.00 0.00 100 1018.2
20260506035518 24 80 4.8 14.5 0.00 0.00 0.00 100 1018.3
20260506035012 24 116 3.2 14.5 0.00 0.00 0.00 100 1018.3
20260506034512 24 105 4.8 12.9 0.00 0.00 0.00 100 1018.4
20260506034011 24 84 4.8 12.9 0.00 0.00 0.00 100 1018.5
20260506033510 24 112 3.2 12.9 0.00 0.00 0.00 100 1018.4
20260506033012 24 104 3.2 12.9 0.00 0.00 0.00 100 1018.3
20260506032510 24 114 4.8 11.3 0.00 0.00 0.00 100 1018.3
20260506032012 24 110 4.8 12.9 0.00 0.00 0.00 100 1018.3
20260506031511 24 108 4.8 12.9 0.00 0.00 0.00 100 1018.4
20260506031012 24 131 3.2 12.9 0.00 0.00 0.00 100 1018.3
20260506030511 24 157 3.2 14.5 0.00 0.00 0.00 100 1018.3
20260506030019 24 96 4.8 16.1 0.00 0.00 0.00 100 1018.3
20260506025509 24 123 6.4 16.1 0.00 0.00 0.00 100 1018.2
20260506025009 24 101 3.2 11.3 0.00 0.00 0.00 100 1018.2
20260506024522 24 115 3.2 14.5 0.00 0.00 0.00 100 1018.1
20260506024009 24 109 6.4 16.1 0.00 0.00 0.00 100 1018.1
20260506023509 24 127 4.8 16.1 0.00 0.00 0.00 100 1018.0
20260506023009 24 92 4.8 12.9 0.00 0.00 0.00 100 1018.0
20260506022508 24 103 3.2 12.9 0.00 0.00 0.00 100 1018.1
20260506022008 24 99 4.8 12.9 0.00 0.00 0.00 100 1018.1
20260506021508 24 112 3.2 16.1 0.00 0.00 0.00 100 1018.0
20260506021009 25 84 4.8 16.1 0.00 0.00 0.00 100 1018.1
20260506020508 24 88 1.6 11.3 0.00 0.00 0.00 100 1017.9
20260506020009 25 149 3.2 11.3 0.00 0.00 0.00 100 1017.9
20260506015507 25 137 3.2 12.9 0.00 0.00 0.00 100 1017.8
20260506015008 25 128 3.2 12.9 0.00 0.00 0.00 100 1017.8
20260506014507 24 96 4.8 12.9 0.00 0.00 0.00 100 1017.7
20260506014007 25 153 3.2 16.1 0.00 0.00 0.00 100 1017.7
20260506013506 25 110 4.8 16.1 0.00 0.00 0.00 100 1017.6
20260506013008 25 103 3.2 11.3 0.00 0.00 0.00 100 1017.5
20260506012506 25 140 3.2 11.3 0.00 0.00 0.00 100 1017.5
20260506012006 25 54 3.2 9.7 0.00 0.00 0.00 100 1017.4
20260506011506 25 130 3.2 9.7 0.00 0.00 0.00 100 1017.3
20260506011007 25 103 3.2 11.3 0.00 0.00 0.00 100 1017.3
20260506010506 25 113 3.2 11.3 0.00 0.00 0.00 100 1017.2
20260506010006 25 102 3.2 14.5 0.00 0.00 0.00 100 1017.2
20260506005608 25 128 3.2 14.5 0.00 0.00 0.00 100 1017.1
20260506005006 25 90 4.8 12.9 0.00 0.00 0.00 100 1017.1
20260506004505 25 93 3.2 11.3 0.00 0.00 0.00 100 1017.1
20260506004005 25 101 3.2 11.3 0.00 0.00 0.00 100 1017.0
20260506003504 25 47 4.8 11.3 0.00 0.00 0.00 100 1016.9
20260506003012 25 109 3.2 8.0 0.00 0.00 0.00 100 1016.9
20260506002504 25 76 1.6 8.0 0.00 0.00 0.00 100 1016.9
20260506002004 25 103 1.6 9.7 0.00 0.00 0.00 100 1016.9
20260506001504 25 148 4.8 12.9 0.00 0.00 0.00 100 1016.9
20260506001004 25 115 3.2 12.9 0.00 0.00 0.00 100 1016.8
20260506000504 25 124 4.8 14.5 0.00 0.00 0.00 100 1016.8
20260506000004 25 35 3.2 14.5 0.00 0.00 0.00 100 1016.8
20260505235503 25 107 3.2 14.5 0.00 0.00 0.00 100 1016.7
20260505235004 25 130 1.6 14.5 0.00 0.00 0.00 100 1016.7
20260505234503 25 36 6.4 14.5 0.00 0.00 0.00 100 1016.7
20260505234005 25 136 3.2 14.5 0.00 0.00 0.00 100 1016.7
20260505233502 25 122 6.4 12.9 0.00 0.00 0.00 100 1016.8
20260505233002 25 107 1.6 14.5 0.00 0.00 0.00 100 1016.8
20260505232502 25 119 3.2 14.5 0.00 0.00 0.00 100 1016.9
20260505232002 25 142 1.6 12.9 0.00 0.00 0.00 100 1016.8
20260505231503 25 360 3.2 12.9 0.00 0.00 0.00 100 1016.9
20260505231002 25 44 1.6 12.9 0.00 0.00 0.00 100 1016.9
20260505230502 25 106 3.2 12.9 0.00 0.00 0.00 100 1017.0
20260505230002 25 118 3.2 16.1 0.00 0.00 0.00 100 1017.1
20260505225504 25 122 3.2 16.1 0.00 0.00 0.00 100 1017.1
20260505225002 25 105 3.2 16.1 0.00 0.00 0.00 100 1017.2
20260505224502 26 15 4.8 16.1 0.00 0.00 0.00 100 1017.2
20260505224001 26 35 1.6 14.5 0.00 0.00 0.00 100 1017.2
20260505223500 26 63 4.8 16.1 0.00 0.00 0.00 100 1017.1
20260505223000 26 32 4.8 19.3 0.00 0.00 0.00 100 1017.0
20260505222602 25 132 3.2 19.3 0.00 0.00 0.00 100 1017.0
20260505222100 25 129 6.4 14.5 0.00 0.00 0.00 100 1017.0
20260505221602 26 109 6.4 17.7 0.00 0.00 0.00 100 1017.0
20260505221100 26 42 4.8 17.7 0.00 0.00 0.00 100 1017.0
20260505220600 26 38 3.2 16.1 0.00 0.00 0.00 100 1017.1
20260505215600 26 101 3.2 16.1 0.00 0.00 0.00 100 1016.9
20260505215100 26 23 4.8 16.1 0.00 0.00 0.00 100 1016.9
20260505214603 26 57 4.8 19.3 0.00 0.00 0.00 100 1016.9
20260505214100 26 146 4.8 19.3 0.00 0.00 0.00 100 1016.8
20260505213558 26 126 4.8 12.9 0.00 0.00 0.00 100 1016.7
20260505213105 26 49 4.8 12.9 0.00 0.00 0.00 100 1016.7
20260505212601 26 46 3.2 17.7 0.00 0.00 0.00 100 1016.9
20260505212059 26 5 4.8 14.5 0.00 0.00 0.00 100 1016.9
20260505211559 26 138 8.0 17.7 0.00 0.00 0.00 100 1016.7
20260505211058 26 97 4.8 17.7 0.00 0.00 0.00 100 1016.9
20260505210558 26 117 3.2 19.3 0.00 0.00 0.00 100 1016.9
20260505210058 26 142 4.8 19.3 0.00 0.00 0.00 100 1016.9
20260505205558 26 130 8.0 19.3 0.00 0.00 0.00 100 1016.8
20260505205058 26 339 4.8 17.7 0.00 0.00 0.00 100 1016.8
20260505204557 26 98 4.8 17.7 0.00 0.00 0.00 100 1016.8
20260505204056 27 148 4.8 16.1 0.00 0.00 0.00 100 1016.8
20260505203556 27 24 3.2 17.7 0.00 0.00 0.00 100 1016.8
20260505203104 26 12 4.8 17.7 0.00 0.00 0.00 100 1016.9
20260505202556 27 149 1.6 14.5 0.00 0.00 0.00 100 1016.9
20260505202058 26 116 6.4 17.7 0.00 0.00 0.00 100 1016.9
20260505201557 27 17 6.4 20.9 0.00 0.00 0.00 100 1016.8
20260505201055 27 43 6.4 20.9 0.00 0.00 0.00 100 1016.8
20260505200555 27 71 6.4 17.7 0.00 0.00 0.00 100 1016.9
20260505200057 26 144 6.4 16.1 0.00 0.00 0.00 100 1017.0
20260505195558 26 102 4.8 20.9 0.00 0.00 0.00 100 1017.0
20260505195055 27 88 8.0 20.9 0.00 0.00 0.00 100 1017.1
20260505194555 27 132 6.4 16.1 0.00 0.00 0.00 100 1017.1
20260505194054 27 110 3.2 16.1 0.00 0.00 0.00 100 1017.2
20260505193555 26 163 4.8 16.1 0.00 0.00 0.00 100 1017.2
20260505193153 26 113 6.4 14.5 0.00 0.00 0.00 100 1017.3
20260505192553 27 67 4.8 16.1 0.00 0.00 0.00 100 1017.3
20260505192054 27 73 4.8 16.1 0.00 0.00 0.00 100 1017.3
20260505191609 27 65 4.8 17.7 0.00 0.00 0.00 100 1017.2
20260505191053 26 96 9.7 17.7 0.00 0.00 0.00 100 1017.4
20260505190552 27 90 4.8 14.5 0.00 0.00 0.00 100 1017.4
20260505190055 26 135 4.8 14.5 0.00 0.00 0.00 100 1017.5
20260505185555 26 121 4.8 14.5 0.00 0.00 0.00 100 1017.7
20260505185052 27 39 3.2 16.1 0.00 0.00 0.00 100 1017.7
20260505184552 27 5 6.4 16.1 0.00 0.00 0.00 100 1017.7
20260505184052 27 123 3.2 20.9 0.00 0.00 0.00 100 1017.8
20260505183550 27 126 4.8 20.9 0.00 0.00 0.00 100 1017.7
20260505183051 26 121 6.4 16.1 0.00 0.00 0.00 100 1017.7
20260505182551 26 134 6.4 17.7 0.00 0.00 0.00 100 1017.8
20260505182056 26 118 4.8 17.7 0.00 0.00 0.00 100 1017.8
20260505181552 27 177 3.2 14.5 0.00 0.00 0.00 100 1017.8
20260505181051 27 94 4.8 20.9 0.00 0.00 0.00 100 1017.9
20260505180550 27 140 9.7 20.9 0.00 0.00 0.00 100 1017.9
20260505175554 26 76 6.4 20.9 0.00 0.00 0.00 100 1017.9
20260505175050 27 102 6.4 17.7 0.00 0.00 0.00 100 1018.1
20260505174555 26 107 6.4 17.7 0.00 0.00 0.00 100 1017.9
20260505174049 26 130 6.4 17.7 0.00 0.00 0.00 100 1017.9
20260505173549 27 146 8.0 19.3 0.00 0.00 0.00 100 1018.2
20260505173049 27 159 6.4 19.3 0.00 0.00 0.00 100 1018.1
20260505172547 27 75 4.8 19.3 0.00 0.00 0.00 100 1018.2
20260505172047 27 89 6.4 16.1 0.00 0.00 0.00 100 1018.2
20260505171550 26 105 4.8 14.5 0.00 0.00 0.00 100 1018.2
20260505171047 26 159 4.8 19.3 0.00 0.00 0.00 100 1018.3
20260505170547 26 90 8.0 20.9 0.00 0.00 0.00 100 1018.3
20260505170048 26 133 6.4 17.7 0.00 0.00 0.00 100 1018.3
20260505165548 26 165 6.4 17.7 0.00 0.00 0.00 100 1018.1
20260505165047 26 121 8.0 22.5 0.00 0.00 0.00 100 1018.1
20260505164549 27 95 6.4 22.5 0.00 0.00 0.00 100 1018.1
20260505164046 27 102 6.4 19.3 0.00 0.00 0.00 100 1018.3
20260505163546 26 135 6.4 19.3 0.00 0.00 0.00 100 1018.2
20260505163046 26 136 9.7 17.7 0.00 0.00 0.00 100 1018.3
20260505162546 26 54 6.4 17.7 0.00 0.00 0.00 100 1018.2
20260505162047 26 135 8.0 17.7 0.00 0.00 0.00 100 1018.2
20260505161551 27 122 4.8 14.5 0.00 0.00 0.00 100 1018.2
20260505161044 26 96 4.8 14.5 0.00 0.00 0.00 100 1018.2
20260505160544 26 169 4.8 20.9 0.00 0.00 0.00 100 1018.3
20260505153041 26 126 4.8 19.3 0.00 0.00 0.00 100 1018.2
20260505152540 26 36 6.4 19.3 0.00 0.00 0.00 100 1018.2
20260505152045 26 57 6.4 16.1 0.00 0.00 0.00 100 1018.2
20260505151539 26 15 4.8 17.7 0.00 0.00 0.00 100 1018.1
20260505151043 26 109 6.4 17.7 0.00 0.00 0.00 100 1018.1
20260505150538 25 119 9.7 17.7 0.00 0.00 0.00 100 1018.1
20260505140532 25 80 3.2 16.1 0.00 0.00 0.00 100 1017.8
20260505125025 23 53 4.8 17.7 0.00 0.00 0.00 100 1017.5
20260505124523 23 119 4.8 14.5 0.00 0.00 0.00 100 1017.5
20260505124022 23 50 3.2 12.9 0.00 0.00 0.00 100 1017.8
20260505123521 23 127 4.8 14.5 0.00 0.00 0.00 100 1017.8
20260505123029 23 118 4.8 14.5 0.00 0.00 0.00 100 1017.9
20260505122521 23 107 3.2 12.9 0.00 0.00 0.00 100 1017.9
20260505122020 23 355 4.8 20.9 0.00 0.00 0.00 100 1017.8
20260505121519 23 24 1.6 20.9 0.00 0.00 0.00 100 1017.8
20260505121019 23 116 6.4 17.7 0.00 0.00 0.00 100 1017.5
20260505120518 23 94 4.8 16.1 0.00 0.00 0.00 100 1017.5
20260505120023 23 80 3.2 14.5 0.00 0.00 0.00 100 1017.4
20260505115515 23 91 3.2 17.7 0.00 0.00 0.00 100 1017.2
20260505115014 23 111 4.8 17.7 0.00 0.00 0.00 100 1017.2
20260505114513 23 110 3.2 14.5 0.00 0.00 0.00 100 1017.2
20260505114018 23 107 4.8 14.5 0.00 0.00 0.00 100 1017.2
20260505113512 23 115 1.6 14.5 0.00 0.00 0.00 100 1017.1
20260505113009 23 58 3.2 14.5 0.00 0.00 0.00 100 1017.1
20260505112509 23 115 3.2 14.5 0.00 0.00 0.00 100 1016.9
20260505112006 23 122 3.2 12.9 0.00 0.00 0.00 100 1016.9
20260505111513 23 98 4.8 17.7 0.00 0.00 0.00 100 1016.8
20260505111004 23 127 3.2 11.3 0.00 0.00 0.00 100 1016.8
20260505110504 23 51 3.2 14.5 0.00 0.00 0.00 100 1016.9
20260505102048 22 143 1.6 12.9 0.00 0.00 0.00 100 1016.4
20260505101602 22 161 4.8 12.9 0.00 0.00 0.00 100 1016.4
20260505101046 22 94 3.2 12.9 0.00 0.00 0.00 100 1016.3
20260505100544 22 75 3.2 9.7 0.00 0.00 0.00 100 1016.3
20260505100059 22 82 3.2 11.3 0.00 0.00 0.00 100 1016.0
20260505095541 22 126 1.6 11.3 0.00 0.00 0.00 100 1016.2
20260505095039 22 113 1.6 8.0 0.00 0.00 0.00 100 1016.1
20260505094539 22 114 1.6 11.3 0.00 0.03 0.00 100 1016.1
20260505094037 22 130 1.6 11.3 0.00 0.03 0.00 100 1016.1
20260505093535 22 114 3.2 11.3 0.00 0.03 0.00 100 1015.9